Time,TemperatureF,DewpointF,PressureIn,WindDirection,WindDirectionDegrees,WindSpeedMPH,WindSpeedGustMPH,Humidity,HourlyPrecipIn,Conditions,Clouds,dailyrainin,SoftwareType,DateUTC
2013-12-06 00:01:00,27.5,22.0,30.06,WNW,295,4.0,13.0,79,0.00,,,0.00,weatherlink.com 1.10,2013-12-06 05:01:00,
2013-12-06 00:16:00,27.4,22.0,30.06,NW,309,3.0,9.0,79,0.00,,,0.00,weatherlink.com 1.10,2013-12-06 05:16:00,
2013-12-06 00:31:00,27.3,22.0,30.08,NW,304,3.0,12.0,80,0.00,,,0.00,weatherlink.com 1.10,2013-12-06 05:31:00,
2013-12-06 00:46:00,27.3,22.0,30.07,NW,306,3.0,11.0,80,0.00,,,0.00,weatherlink.com 1.10,2013-12-06 05:46:00,
2013-12-06 01:16:00,27.3,22.0,30.06,West,274,4.0,8.0,80,0.00,,,0.00,weatherlink.com 1.10,2013-12-06 06:16:00,
2013-12-06 01:31:00,27.2,22.0,30.06,NW,323,5.0,10.0,79,0.00,,,0.00,weatherlink.com 1.10,2013-12-06 06:31:00,
2013-12-06 01:46:00,27.1,22.0,30.05,WNW,299,4.0,11.0,80,0.00,,,0.00,weatherlink.com 1.10,2013-12-06 06:46:00,
2013-12-06 02:01:00,27.1,22.0,30.05,NW,317,6.0,11.0,80,0.00,,,0.00,weatherlink.com 1.10,2013-12-06 07:01:00,
2013-12-06 02:16:00,27.1,22.0,30.06,West,275,4.0,11.0,80,0.00,,,0.00,weatherlink.com 1.10,2013-12-06 07:16:00,
2013-12-06 02:31:00,27.1,22.0,30.06,WNW,292,7.0,10.0,80,0.00,,,0.00,weatherlink.com 1.10,2013-12-06 07:31:00,
2013-12-06 02:46:00,27.1,22.0,30.06,NW,321,3.0,7.0,80,0.00,,,0.00,weatherlink.com 1.10,2013-12-06 07:46:00,
2013-12-06 03:01:00,27.1,22.0,30.07,NW,313,4.0,8.0,81,0.00,,,0.00,weatherlink.com 1.10,2013-12-06 08:01:00,
2013-12-06 03:16:00,27.1,22.0,30.07,West,273,4.0,10.0,81,0.00,,,0.00,weatherlink.com 1.10,2013-12-06 08:16:00,
2013-12-06 03:31:00,27.1,22.0,30.08,NW,315,3.0,9.0,81,0.00,,,0.00,weatherlink.com 1.10,2013-12-06 08:31:00,
2013-12-06 03:46:00,27.0,22.0,30.08,NW,304,8.0,9.0,82,0.00,,,0.00,weatherlink.com 1.10,2013-12-06 08:46:00,
2013-12-06 04:01:00,27.0,22.0,30.08,NW,326,9.0,10.0,80,0.00,,,0.00,weatherlink.com 1.10,2013-12-06 09:01:00,
2013-12-06 04:16:00,27.0,21.0,30.09,WNW,297,2.0,8.0,79,0.00,,,0.00,weatherlink.com 1.10,2013-12-06 09:16:00,
2013-12-06 04:31:00,26.9,22.0,30.09,NW,319,3.0,5.0,80,0.00,,,0.00,weatherlink.com 1.10,2013-12-06 09:31:00,
2013-12-06 04:46:00,26.8,21.0,30.09,WNW,300,4.0,7.0,79,0.00,,,0.00,weatherlink.com 1.10,2013-12-06 09:46:00,
2013-12-06 05:01:00,26.7,21.0,30.10,NW,315,4.0,10.0,79,0.00,,,0.00,weatherlink.com 1.10,2013-12-06 10:01:00,
2013-12-06 05:16:00,26.6,21.0,30.10,NNW,329,3.0,8.0,80,0.00,,,0.00,weatherlink.com 1.10,2013-12-06 10:16:00,
2013-12-06 05:32:00,26.5,21.0,30.10,NW,310,4.0,10.0,80,0.00,,,0.00,weatherlink.com 1.10,2013-12-06 10:32:00,
2013-12-06 05:47:00,26.4,21.0,30.10,NW,304,3.0,15.0,79,0.00,,,0.00,weatherlink.com 1.10,2013-12-06 10:47:00,
2013-12-06 06:02:00,26.4,21.0,30.10,North,360,8.0,11.0,80,0.00,,,0.00,weatherlink.com 1.10,2013-12-06 11:02:00,
2013-12-06 06:17:00,26.3,21.0,30.11,NW,315,2.0,9.0,80,0.00,,,0.00,weatherlink.com 1.10,2013-12-06 11:17:00,
2013-12-06 06:32:00,26.3,21.0,30.11,NW,311,3.0,9.0,81,0.00,,,0.00,weatherlink.com 1.10,2013-12-06 11:32:00,
2013-12-06 06:47:00,26.3,21.0,30.11,North,355,4.0,7.0,81,0.00,,,0.00,weatherlink.com 1.10,2013-12-06 11:47:00,
2013-12-06 07:02:00,26.3,21.0,30.13,NNW,348,4.0,7.0,80,0.00,,,0.00,weatherlink.com 1.10,2013-12-06 12:02:00,
2013-12-06 07:17:00,26.2,21.0,30.13,NNW,342,2.0,9.0,80,0.00,,,0.00,weatherlink.com 1.10,2013-12-06 12:17:00,
2013-12-06 07:32:00,26.1,20.0,30.14,NW,305,9.0,10.0,79,0.00,,,0.00,weatherlink.com 1.10,2013-12-06 12:32:00,
2013-12-06 07:47:00,26.0,20.0,30.14,NNW,337,4.0,9.0,79,0.00,,,0.00,weatherlink.com 1.10,2013-12-06 12:47:00,
2013-12-06 08:02:00,26.0,20.0,30.14,WNW,296,3.0,7.0,79,0.00,,,0.00,weatherlink.com 1.10,2013-12-06 13:02:00,
2013-12-06 08:17:00,25.9,20.0,30.16,NNW,336,3.0,8.0,78,0.00,,,0.00,weatherlink.com 1.10,2013-12-06 13:17:00,
2013-12-06 08:32:00,25.8,20.0,30.15,NNW,333,4.0,11.0,78,0.00,,,0.00,weatherlink.com 1.10,2013-12-06 13:32:00,
2013-12-06 08:47:00,26.0,21.0,30.16,NW,315,3.0,7.0,80,0.00,,,0.00,weatherlink.com 1.10,2013-12-06 13:47:00,
2013-12-06 09:02:00,25.9,20.0,30.15,NW,313,8.0,9.0,79,0.00,,,0.00,weatherlink.com 1.10,2013-12-06 14:02:00,
2013-12-06 09:17:00,25.8,20.0,30.15,NW,309,4.0,8.0,80,0.00,,,0.00,weatherlink.com 1.10,2013-12-06 14:17:00,
2013-12-06 09:32:00,25.7,20.0,30.14,North,355,3.0,5.0,79,0.00,,,0.00,weatherlink.com 1.10,2013-12-06 14:32:00,
2013-12-06 09:47:00,25.7,20.0,30.16,NNE,28,5.0,7.0,78,0.00,,,0.00,weatherlink.com 1.10,2013-12-06 14:47:00,
2013-12-06 10:02:00,25.7,20.0,30.18,NNW,329,3.0,6.0,79,0.00,,,0.00,weatherlink.com 1.10,2013-12-06 15:02:00,
2013-12-06 10:17:00,25.8,20.0,30.18,NW,314,3.0,6.0,79,0.00,,,0.00,weatherlink.com 1.10,2013-12-06 15:17:00,
2013-12-06 10:32:00,25.7,20.0,30.18,North,355,3.0,9.0,78,0.00,,,0.00,weatherlink.com 1.10,2013-12-06 15:32:00,
2013-12-06 10:47:00,25.7,20.0,30.20,NNW,339,3.0,7.0,79,0.00,,,0.00,weatherlink.com 1.10,2013-12-06 15:47:00,
2013-12-06 11:02:00,25.6,20.0,30.19,North,9,5.0,6.0,79,0.00,,,0.00,weatherlink.com 1.10,2013-12-06 16:02:00,
2013-12-06 11:17:00,25.5,20.0,30.20,NW,311,5.0,8.0,78,0.00,,,0.00,weatherlink.com 1.10,2013-12-06 16:17:00,
2013-12-06 11:32:00,25.6,20.0,30.19,NW,326,6.0,11.0,78,0.00,,,0.00,weatherlink.com 1.10,2013-12-06 16:32:00,
2013-12-06 11:47:00,25.5,19.0,30.18,NNW,347,2.0,12.0,77,0.00,,,0.00,weatherlink.com 1.10,2013-12-06 16:47:00,
2013-12-06 12:02:00,25.4,19.0,30.18,West,277,3.0,7.0,78,0.00,,,0.00,weatherlink.com 1.10,2013-12-06 17:02:00,
2013-12-06 12:17:00,25.3,19.0,30.20,NNW,346,5.0,8.0,78,0.00,,,0.00,weatherlink.com 1.10,2013-12-06 17:17:00,
2013-12-06 12:32:00,25.2,20.0,30.19,NW,307,2.0,10.0,79,0.00,,,0.00,weatherlink.com 1.10,2013-12-06 17:32:00,
2013-12-06 12:47:00,25.4,20.0,30.18,NW,319,3.0,10.0,79,0.00,,,0.00,weatherlink.com 1.10,2013-12-06 17:47:00,
2013-12-06 13:02:00,25.3,19.0,30.17,NW,304,4.0,9.0,77,0.00,,,0.00,weatherlink.com 1.10,2013-12-06 18:02:00,
2013-12-06 13:17:00,25.3,19.0,30.17,WNW,299,3.0,10.0,78,0.00,,,0.00,weatherlink.com 1.10,2013-12-06 18:17:00,
2013-12-06 13:32:00,25.3,19.0,30.17,NW,325,4.0,10.0,78,0.00,,,0.00,weatherlink.com 1.10,2013-12-06 18:32:00,
2013-12-06 13:47:00,25.1,19.0,30.17,NW,313,4.0,10.0,78,0.00,,,0.00,weatherlink.com 1.10,2013-12-06 18:47:00,
2013-12-06 14:02:00,24.9,19.0,30.16,NNW,334,4.0,10.0,78,0.00,,,0.00,weatherlink.com 1.10,2013-12-06 19:02:00,
2013-12-06 14:17:00,24.8,19.0,30.18,NW,315,4.0,8.0,79,0.00,,,0.00,weatherlink.com 1.10,2013-12-06 19:17:00,
2013-12-06 14:32:00,24.7,19.0,30.17,WNW,297,7.0,9.0,79,0.00,,,0.00,weatherlink.com 1.10,2013-12-06 19:32:00,
2013-12-06 14:47:00,24.5,19.0,30.18,NW,320,4.0,9.0,79,0.00,,,0.00,weatherlink.com 1.10,2013-12-06 19:47:00,
2013-12-06 15:02:00,24.4,19.0,30.18,WNW,302,5.0,12.0,79,0.00,,,0.00,weatherlink.com 1.10,2013-12-06 20:02:00,
2013-12-06 15:17:00,24.2,18.0,30.18,NW,325,3.0,9.0,78,0.00,,,0.00,weatherlink.com 1.10,2013-12-06 20:17:00,
2013-12-06 15:32:00,24.3,18.0,30.19,NW,305,3.0,7.0,78,0.00,,,0.00,weatherlink.com 1.10,2013-12-06 20:32:00,
2013-12-06 15:47:00,24.3,18.0,30.17,WNW,303,3.0,10.0,78,0.00,,,0.00,weatherlink.com 1.10,2013-12-06 20:47:00,
2013-12-06 16:02:00,24.2,18.0,30.18,NNW,337,3.0,9.0,78,0.00,,,0.00,weatherlink.com 1.10,2013-12-06 21:02:00,
2013-12-06 16:17:00,23.9,18.0,30.18,WNW,298,4.0,10.0,78,0.00,,,0.00,weatherlink.com 1.10,2013-12-06 21:17:00,
2013-12-06 16:32:00,23.8,18.0,30.19,WNW,298,3.0,10.0,78,0.00,,,0.00,weatherlink.com 1.10,2013-12-06 21:32:00,
2013-12-06 16:48:00,23.8,18.0,30.19,North,355,5.0,8.0,79,0.00,,,0.00,weatherlink.com 1.10,2013-12-06 21:48:00,
2013-12-06 17:03:00,23.6,18.0,30.19,North,355,2.0,5.0,79,0.00,,,0.00,weatherlink.com 1.10,2013-12-06 22:03:00,
2013-12-06 17:18:00,23.5,18.0,30.20,NW,325,4.0,10.0,79,0.00,,,0.00,weatherlink.com 1.10,2013-12-06 22:18:00,
2013-12-06 17:33:00,23.4,18.0,30.20,NW,325,4.0,8.0,80,0.00,,,0.00,weatherlink.com 1.10,2013-12-06 22:33:00,
2013-12-06 17:48:00,23.4,18.0,30.23,NNW,329,3.0,8.0,80,0.00,,,0.00,weatherlink.com 1.10,2013-12-06 22:48:00,
2013-12-06 18:03:00,23.3,18.0,30.22,NNE,22,1.0,6.0,80,0.00,,,0.00,weatherlink.com 1.10,2013-12-06 23:03:00,
2013-12-06 18:18:00,23.2,18.0,30.22,NW,312,2.0,7.0,80,0.00,,,0.00,weatherlink.com 1.10,2013-12-06 23:18:00,
2013-12-06 18:33:00,23.1,18.0,30.22,WNW,296,2.0,7.0,80,0.00,,,0.00,weatherlink.com 1.10,2013-12-06 23:33:00,
2013-12-06 18:48:00,23.1,18.0,30.23,NNW,342,6.0,9.0,79,0.00,,,0.00,weatherlink.com 1.10,2013-12-06 23:48:00,
2013-12-06 19:03:00,23.1,18.0,30.25,WNW,301,4.0,8.0,79,0.00,,,0.00,weatherlink.com 1.10,2013-12-07 00:03:00,
2013-12-06 19:18:00,23.1,18.0,30.25,WNW,285,5.0,8.0,79,0.00,,,0.00,weatherlink.com 1.10,2013-12-07 00:18:00,
2013-12-06 19:33:00,23.1,18.0,30.25,NW,316,3.0,8.0,79,0.00,,,0.00,weatherlink.com 1.10,2013-12-07 00:33:00,
2013-12-06 19:48:00,23.0,17.0,30.24,West,281,5.0,8.0,78,0.00,,,0.00,weatherlink.com 1.10,2013-12-07 00:48:00,
2013-12-06 20:03:00,22.9,17.0,30.24,NNW,329,2.0,8.0,79,0.00,,,0.00,weatherlink.com 1.10,2013-12-07 01:03:00,
2013-12-06 20:18:00,22.9,17.0,30.24,WNW,298,3.0,7.0,78,0.00,,,0.00,weatherlink.com 1.10,2013-12-07 01:18:00,
2013-12-06 20:33:00,22.8,17.0,30.25,NNW,339,3.0,8.0,78,0.00,,,0.00,weatherlink.com 1.10,2013-12-07 01:33:00,
2013-12-06 20:48:00,22.7,17.0,30.25,North,11,2.0,7.0,79,0.00,,,0.00,weatherlink.com 1.10,2013-12-07 01:48:00,
2013-12-06 21:03:00,22.7,16.0,30.27,NNW,327,2.0,9.0,76,0.00,,,0.00,weatherlink.com 1.10,2013-12-07 02:03:00,
2013-12-06 21:18:00,22.7,16.0,30.27,West,259,7.0,8.0,74,0.00,,,0.00,weatherlink.com 1.10,2013-12-07 02:18:00,
2013-12-06 21:33:00,22.6,15.0,30.27,NW,326,4.0,6.0,74,0.00,,,0.00,weatherlink.com 1.10,2013-12-07 02:33:00,
2013-12-06 21:48:00,22.6,15.0,30.27,NW,310,5.0,10.0,73,0.00,,,0.00,weatherlink.com 1.10,2013-12-07 02:48:00,
2013-12-06 22:03:00,22.6,16.0,30.28,West,276,6.0,9.0,75,0.00,,,0.00,weatherlink.com 1.10,2013-12-07 03:03:00,
2013-12-06 22:18:00,22.5,16.0,30.29,WNW,300,3.0,6.0,75,0.00,,,0.00,weatherlink.com 1.10,2013-12-07 03:18:00,
2013-12-06 22:33:00,22.6,16.0,30.30,WNW,290,3.0,7.0,77,0.00,,,0.00,weatherlink.com 1.10,2013-12-07 03:33:00,
2013-12-06 22:48:00,22.5,16.0,30.30,WNW,302,5.0,8.0,77,0.00,,,0.00,weatherlink.com 1.10,2013-12-07 03:48:00,
2013-12-06 23:03:00,22.5,17.0,30.30,WNW,287,4.0,5.0,78,0.00,,,0.00,weatherlink.com 1.10,2013-12-07 04:03:00,
2013-12-06 23:18:00,22.5,17.0,30.30,NW,314,1.0,4.0,79,0.00,,,0.00,weatherlink.com 1.10,2013-12-07 04:18:00,
2013-12-06 23:33:00,22.4,17.0,30.30,West,276,1.0,6.0,80,0.00,,,0.00,weatherlink.com 1.10,2013-12-07 04:33:00,
2013-12-06 23:48:00,22.4,17.0,30.31,NNW,339,3.0,9.0,80,0.00,,,0.00,weatherlink.com 1.10,2013-12-07 04:48:00,